Warsaw, IN

5:42 AM EDT on August 22, 2017 (GMT -0400)
Warsaw Municipal

Weather History for KASW - April, 2014

Change the Weather History Date:

Monday, April 28, 2014

  Actual Average Record
Temperature  
Mean Temperature 46 °F -  
Max Temperature 50 °F 65 °F 84 °F (1962)
Min Temperature 42 °F 42 °F 27 °F (1967)
Degree Days  
Heating Degree Days 19    
Moisture  
Dew Point 40 °F    
Average Humidity 78    
Maximum Humidity 100    
Minimum Humidity 53    
Precipitation  
Precipitation 0.32 in - - ()
Sea Level Pressure  
Sea Level Pressure 29.77 in    
Wind  
Wind Speed 17 mph (East)    
Max Wind Speed 28 mph    
Max Gust Speed 36 mph    
Visibility 8 miles    
Events Rain    
Averages and records for this station are not official NWS values.
T = Trace of Precipitation, MM = Missing Value Source: NWS Daily Summary

Daily Weather History Graph

Daily Weather History Graph

Search for Another Location

Airport or City:

Trip Planner

Search our weather history database for the weather conditions in past years. The results will help you decide how hot, cold, wet, or windy it might be!

Date:

Astronomy

Apr. 28, 2014 Rise Set
Actual Time 6:44 AM EDT 8:37 PM EDT
Civil Twilight 6:15 AM EDT 9:07 PM EDT
Nautical Twilight 5:38 AM EDT 9:43 PM EDT
Astronomical Twilight 4:59 AM EDT 10:22 PM EDT
Moon 6:23 AM EDT (4/28) 8:14 PM EDT (4/28)
Length of Visible Light 14h 52m
Length of Day
13h 52m
Waning Crescent, 0% of the Moon is Illuminated
Apr 28
Waning Crescent
Apr 29
New
May 6
First Quarter
May 14
Full
May 21
Last Quarter

Hourly Weather History & Observations

Time (EDT) Temp. Windchill Dew Point Humidity Pressure Visibility Wind Dir Wind Speed Gust Speed Precip Events Conditions
12:15 AM 46.4 °F 39.8 °F 30.2 °F 53% 29.92 in 10.0 mi East 16.1 mph 28.8 mph N/A   Clear
12:35 AM 46.4 °F 39.8 °F 30.2 °F 53% 29.91 in 10.0 mi East 16.1 mph 27.6 mph N/A   Mostly Cloudy
12:55 AM 46.4 °F 40.1 °F 30.2 °F 53% 29.93 in 10.0 mi East 15.0 mph 24.2 mph N/A   Overcast
1:15 AM 46.4 °F 40.4 °F 30.2 °F 53% 29.94 in 10.0 mi East 13.8 mph 24.2 mph N/A   Overcast
1:35 AM 46.4 °F 39.5 °F 32.0 °F 57% 29.94 in 10.0 mi East 17.3 mph 21.9 mph N/A   Overcast
1:55 AM 46.4 °F 39.8 °F 32.0 °F 57% 29.94 in 10.0 mi East 16.1 mph 24.2 mph N/A   Overcast
2:15 AM 46.4 °F 40.1 °F 32.0 °F 57% 29.93 in 10.0 mi East 15.0 mph 20.7 mph N/A   Overcast
2:35 AM 46.4 °F 38.5 °F 32.0 °F 57% 29.92 in 10.0 mi East 21.9 mph 26.5 mph N/A   Overcast
2:55 AM 46.4 °F 39.2 °F 32.0 °F 57% 29.90 in 10.0 mi East 18.4 mph 26.5 mph N/A   Overcast
3:15 AM 46.4 °F 39.8 °F 32.0 °F 57% 29.88 in 10.0 mi East 16.1 mph 27.6 mph N/A   Overcast
3:35 AM 46.4 °F 40.1 °F 32.0 °F 57% 29.87 in 10.0 mi East 15.0 mph 24.2 mph N/A   Overcast
3:55 AM 46.4 °F 40.4 °F 32.0 °F 57% 29.86 in 10.0 mi East 13.8 mph 23.0 mph N/A   Overcast
4:15 AM 46.4 °F 39.5 °F 32.0 °F 57% 29.85 in 10.0 mi East 17.3 mph 26.5 mph N/A   Overcast
4:35 AM 46.4 °F 39.2 °F 32.0 °F 57% 29.83 in 10.0 mi East 18.4 mph 24.2 mph N/A   Scattered Clouds
4:55 AM 46.4 °F 39.2 °F 32.0 °F 57% 29.81 in 10.0 mi East 18.4 mph 24.2 mph N/A   Scattered Clouds
5:15 AM 48.2 °F - 32.0 °F 54% 29.81 in 10.0 mi East 16.1 mph 24.2 mph N/A   Overcast
5:35 AM 48.2 °F - 32.0 °F 54% 29.81 in 10.0 mi East 18.4 mph 21.9 mph N/A   Overcast
5:55 AM 48.2 °F - 33.8 °F 58% 29.81 in 10.0 mi East 19.6 mph 26.5 mph N/A   Overcast
6:15 AM 48.2 °F - 33.8 °F 58% 29.81 in 10.0 mi East 17.3 mph 24.2 mph N/A   Overcast
6:35 AM 48.2 °F - 33.8 °F 58% 29.81 in 10.0 mi East 16.1 mph 23.0 mph N/A Rain Light Rain
6:55 AM 48.2 °F - 33.8 °F 58% 29.80 in 10.0 mi East 15.0 mph 24.2 mph N/A   Light Drizzle
7:15 AM 46.4 °F 40.1 °F 35.6 °F 66% 29.79 in 10.0 mi East 15.0 mph 23.0 mph N/A Rain Light Rain
7:35 AM 46.4 °F 40.1 °F 37.4 °F 71% 29.80 in 10.0 mi East 15.0 mph - N/A Rain Light Rain
7:55 AM 44.6 °F 38.4 °F 37.4 °F 76% 29.80 in 10.0 mi East 12.7 mph 16.1 mph N/A Rain Light Rain
8:15 AM 44.6 °F 38.4 °F 37.4 °F 76% 29.80 in 10.0 mi East 12.7 mph 20.7 mph 0.01 in Rain Light Rain
8:35 AM 44.6 °F 38.8 °F 37.4 °F 76% 29.80 in 10.0 mi East 11.5 mph - 0.01 in Rain Light Rain
8:55 AM 44.6 °F 38.4 °F 37.4 °F 76% 29.81 in 10.0 mi East 12.7 mph - 0.03 in Rain Light Rain
9:15 AM 44.6 °F 38.4 °F 39.2 °F 81% 29.81 in 5.0 mi East 12.7 mph 20.7 mph 0.04 in Rain Heavy Rain
9:35 AM 44.6 °F 38.4 °F 41.0 °F 87% 29.81 in 5.0 mi East 12.7 mph 19.6 mph 0.09 in Rain Rain
9:55 AM 42.8 °F 35.8 °F 41.0 °F 93% 29.80 in 5.0 mi East 13.8 mph 21.9 mph 0.14 in Rain Heavy Rain
10:15 AM 42.8 °F 35.1 °F 41.0 °F 93% 29.80 in 5.0 mi East 16.1 mph 23.0 mph 0.04 in Rain Heavy Rain
10:35 AM 42.8 °F 34.5 °F 41.0 °F 93% 29.79 in 2.5 mi East 18.4 mph 25.3 mph 0.09 in   Overcast
10:55 AM 42.8 °F 34.5 °F 41.0 °F 93% 29.76 in 3.0 mi East 18.4 mph 23.0 mph 0.13 in Rain Heavy Rain
11:15 AM 42.8 °F 32.7 °F 42.8 °F 100% 29.71 in 2.5 mi East 27.6 mph 32.2 mph 0.02 in Rain Heavy Rain
11:35 AM 44.6 °F 36.6 °F 42.8 °F 93% 29.73 in 5.0 mi East 19.6 mph 32.2 mph 0.02 in Rain Light Rain
12:15 PM 46.4 °F 38.7 °F 42.8 °F 87% 29.75 in 10.0 mi ESE 20.7 mph 27.6 mph N/A   Overcast
12:35 PM 46.4 °F 40.1 °F 42.8 °F 87% 29.74 in 10.0 mi East 15.0 mph 23.0 mph N/A   Overcast
12:55 PM 46.4 °F 39.2 °F 42.8 °F 87% 29.75 in 10.0 mi East 18.4 mph 26.5 mph N/A   Overcast
1:15 PM 46.4 °F 39.0 °F 42.8 °F 87% 29.76 in 10.0 mi East 19.6 mph 29.9 mph N/A Rain Light Rain
1:35 PM 46.4 °F 38.3 °F 42.8 °F 87% 29.74 in 7.0 mi East 23.0 mph 29.9 mph N/A   Overcast
1:55 PM 46.4 °F 38.5 °F 42.8 °F 87% 29.74 in 7.0 mi East 21.9 mph 35.7 mph N/A   Overcast
2:15 PM 46.4 °F 39.8 °F 44.6 °F 93% 29.74 in 10.0 mi East 16.1 mph 21.9 mph N/A   Overcast
2:35 PM 48.2 °F - 44.6 °F 87% 29.74 in 10.0 mi ESE 15.0 mph 23.0 mph N/A   Overcast
2:55 PM 48.2 °F - 44.6 °F 87% 29.75 in 10.0 mi ESE 19.6 mph 25.3 mph N/A   Overcast
3:15 PM 48.2 °F - 44.6 °F 87% 29.75 in 10.0 mi ESE 18.4 mph 27.6 mph N/A   Overcast
3:35 PM 48.2 °F - 44.6 °F 87% 29.76 in 10.0 mi ESE 19.6 mph 25.3 mph N/A   Overcast
3:55 PM 48.2 °F - 44.6 °F 87% 29.78 in 10.0 mi ESE 20.7 mph 28.8 mph N/A   Overcast
4:35 PM 46.4 °F 38.1 °F 44.6 °F 93% 29.73 in 10.0 mi ESE 24.2 mph 33.4 mph N/A   Overcast
4:55 PM 50.0 °F - 46.4 °F 87% 29.71 in 7.0 mi East 19.6 mph 28.8 mph N/A   Overcast
5:15 PM 48.2 °F - 44.6 °F 87% 29.70 in 10.0 mi East 16.1 mph 29.9 mph N/A   Overcast
5:35 PM 48.2 °F - 44.6 °F 87% 29.69 in 7.0 mi East 18.4 mph 28.8 mph N/A   Overcast
5:55 PM 48.2 °F - 44.6 °F 87% 29.68 in 7.0 mi East 15.0 mph 24.2 mph N/A   Overcast
6:15 PM 48.2 °F - 44.6 °F 87% 29.67 in 7.0 mi East 17.3 mph 24.2 mph N/A   Overcast
6:35 PM 48.2 °F - 44.6 °F 87% 29.68 in 7.0 mi East 13.8 mph 20.7 mph N/A   Overcast
6:55 PM 48.2 °F - 44.6 °F 87% 29.68 in 7.0 mi ESE 15.0 mph 26.5 mph N/A   Overcast
7:15 PM 48.2 °F - 44.6 °F 87% 29.67 in 7.0 mi East 18.4 mph 29.9 mph N/A   Overcast
7:35 PM 48.2 °F - 44.6 °F 87% 29.67 in 7.0 mi East 20.7 mph 27.6 mph N/A   Overcast
7:55 PM 48.2 °F - 44.6 °F 87% 29.68 in 7.0 mi ESE 13.8 mph 24.2 mph N/A   Overcast
8:15 PM 48.2 °F - 44.6 °F 87% 29.67 in 7.0 mi East 15.0 mph 18.4 mph N/A   Overcast
8:35 PM 46.4 °F 39.8 °F 44.6 °F 93% 29.66 in 7.0 mi East 16.1 mph 24.2 mph N/A   Overcast
8:55 PM 46.4 °F 40.1 °F 44.6 °F 93% 29.66 in 7.0 mi East 15.0 mph 25.3 mph N/A   Overcast
9:15 PM 46.4 °F 40.1 °F 44.6 °F 93% 29.67 in 7.0 mi East 15.0 mph 24.2 mph N/A   Overcast
9:35 PM 46.4 °F 40.1 °F 44.6 °F 93% 29.65 in 7.0 mi East 15.0 mph 27.6 mph N/A   Overcast
9:55 PM 46.4 °F 39.5 °F 44.6 °F 93% 29.65 in 7.0 mi East 17.3 mph 25.3 mph N/A   Overcast
10:15 PM 46.4 °F 39.8 °F 44.6 °F 93% 29.65 in 7.0 mi East 16.1 mph 23.0 mph N/A   Overcast
10:35 PM 46.4 °F 40.4 °F 44.6 °F 93% 29.66 in 7.0 mi East 13.8 mph 26.5 mph N/A   Overcast
10:55 PM 46.4 °F 39.2 °F 44.6 °F 93% 29.66 in 5.0 mi East 18.4 mph 24.2 mph N/A   Overcast
11:15 PM 46.4 °F 40.4 °F 44.6 °F 93% 29.65 in 5.0 mi East 13.8 mph 24.2 mph N/A   Overcast
11:35 PM 46.4 °F 39.8 °F 46.4 °F 100% 29.65 in 4.0 mi East 16.1 mph 21.9 mph N/A   Overcast
11:55 PM 46.4 °F 40.4 °F 46.4 °F 100% 29.64 in 4.0 mi East 13.8 mph 20.7 mph N/A   Overcast